Have a Safe July 4th! 

Flight Track Log - Related Links

Times and Time Zones

All times are in EDT time to prevent confusion due to time zone crossing. See the N585KT flight status page for this flight to view local times or setup timezone preferences in your user account.

Time Position Orientation Groundspeed Altitude Reporting Facility
EDT Latitude Longitude Course Direction KTS MPH feet Rate Location/Type
Tue 07:09:16 PM 18.6272 -69.9433 335° Northwest 239 275 17,100  Level Miami Center
Tue 07:10:00 PM 18.4462 -69.6792 330° Northwest  Level FlightAware Approximate
Tue 07:10:18 PM 18.6783 -69.9764 329° Northwest 222 255 18,700  Level Miami Center
Tue 07:11:00 PM 18.4817 -69.7012 329° Northwest  Level FlightAware Approximate
Tue 07:11:20 PM 18.7406 -70.0131 331° Northwest 223 257 19,500  Level Miami Center
Tue 07:12:00 PM 18.5172 -69.7233 329° Northwest  Level FlightAware Approximate
Tue 07:12:22 PM 18.7903 -70.0550 321° Northwest 237 273 21,600  Level Miami Center
Tue 07:13:00 PM 18.5538 -69.7436 335° Northwest  Level FlightAware Approximate
Tue 07:13:23 PM 18.8583 -70.1025 327° Northwest 240 276 23,400  Level Miami Center
Tue 07:14:00 PM 18.5910 -69.7622 335° Northwest  Level FlightAware Approximate
Tue 07:14:25 PM 18.9169 -70.1422 327° Northwest 242 278 24,000  Level Miami Center
Tue 07:15:27 PM 18.9858 -70.1847 330° Northwest 270 311 24,000  Level Miami Center
Tue 07:16:28 PM 19.0561 -70.2314 328° Northwest 286 329 24,000  Level Miami Center
Tue 07:17:30 PM 19.1247 -70.2744 329° Northwest 288 331 24,000  Level Miami Center
Tue 07:18:32 PM 19.2019 -70.3264 328° Northwest 303 349 24,000  Level Miami Center
Tue 07:19:45 PM 19.2750 -70.3731 329° Northwest 304 350 24,000  Level Miami Center
Tue 07:20:47 PM 19.3622 -70.4311 328° Northwest 304 350 24,000  Level Miami Center
Tue 07:21:49 PM 19.4494 -70.4922 327° Northwest 308 354 24,000  Level Miami Center
Tue 07:22:51 PM 19.5225 -70.5419 327° Northwest 308 354 24,000  Level Miami Center
Tue 07:23:53 PM 19.5964 -70.5897 329° Northwest 308 354 24,000  Level Miami Center
Tue 07:24:54 PM 19.6683 -70.6378 328° Northwest 308 354 24,000  Level Miami Center
Tue 07:25:56 PM 19.7428 -70.6839 330° Northwest 308 354 24,000  Level Miami Center
Tue 07:26:58 PM 19.8150 -70.7314 328° Northwest 308 354 24,000  Level Miami Center
Tue 07:27:59 PM 19.8872 -70.7800 328° Northwest 308 354 24,000  Level Miami Center
Tue 07:29:01 PM 19.9747 -70.8367 329° Northwest 308 354 24,000  Level Miami Center
Tue 07:30:03 PM 20.0472 -70.8836 329° Northwest 308 354 24,000  Level Miami Center
Tue 07:31:04 PM 20.1194 -70.9325 328° Northwest 308 354 24,000  Level Miami Center
Tue 07:32:06 PM 20.1922 -70.9800 329° Northwest 307 353 24,000  Level Miami Center
Tue 07:33:08 PM 20.2667 -71.0250 330° Northwest 307 353 24,000  Level Miami Center
Tue 07:34:10 PM 20.3411 -71.0697 331° Northwest 307 353 24,000  Level Miami Center
Tue 07:35:11 PM 20.4153 -71.1142 331° Northwest 307 353 24,000  Level Miami Center
Tue 07:36:13 PM 20.4819 -71.1689 322° Northwest 306 352 24,000  Level Miami Center
Tue 07:37:15 PM 20.5631 -71.2342 323° Northwest 306 352 24,000  Level Miami Center
Tue 07:38:16 PM 20.6292 -71.2931 320° Northwest 306 352 24,000 -49 Level Miami Center
Tue 07:39:18 PM 20.6950 -71.3511 320° Northwest 306 352 23,900 -484 Descending Miami Center
Tue 07:40:20 PM 20.7622 -71.4117 320° Northwest 307 353 23,000 -732 Descending Miami Center
Tue 07:41:21 PM 20.8339 -71.4728 321° Northwest 317 365 22,400 -1,024 Descending Miami Center
Tue 07:42:23 PM 20.9075 -71.5336 322° Northwest 324 373 20,900 -1,210 Descending Miami Center
Tue 07:43:25 PM 20.9833 -71.5956 323° Northwest 332 382 19,900 -1,220 Descending Miami Center
Tue 07:44:26 PM 21.0564 -71.6558 322° Northwest 333 383 18,400 -1,561 Descending Miami Center
Tue 07:45:28 PM 21.1269 -71.7156 322° Northwest 329 379 16,700 -1,756 Descending Miami Center
Tue 07:46:29 PM 21.2139 -71.7869 323° Northwest 328 377 14,800 -1,415 Descending Miami Center
Tue 07:47:31 PM 21.2819 -71.8472 320° Northwest 326 375 13,800 -1,161 Descending Miami Center
Tue 07:48:33 PM 21.3464 -71.9061 320° Northwest 316 364 12,400 -1,463 Descending Miami Center
Tue 07:49:34 PM 21.4128 -71.9633 321° Northwest 310 357 10,800 -1,951 Descending Miami Center
Tue 07:50:36 PM 21.4775 -72.0175 322° Northwest 301 346 8,400 -2,244 Descending Miami Center
Tue 07:51:37 PM 21.5375 -72.0736 319° Northwest 296 341 6,200 -2,164 Descending Miami Center
Tue 07:53:00 PM 21.7667 -72.2667 317° Northwest  Level FlightAware Approximate
Tue 08:00:00 PM 21.7736 -72.2659 317° Northwest  Level Estimated
Tue 08:01:00 PM 21.7667 -72.2667 317° Northwest  Level FlightAware Approximate
Tue 08:02:00 PM 21.7736 -72.2659 317° Northwest  Level Estimated
Tue 08:03:00 PM 21.7667 -72.2667 317° Northwest  Level FlightAware Approximate
Tue 08:04:00 PM 21.7736 -72.2659 317° Northwest  Level Estimated
Tue 08:05:00 PM 21.7667 -72.2667 317° Northwest  Level FlightAware Approximate
Tue 08:06:00 PM 21.7736 -72.2659 317° Northwest  Level Estimated
Tue 08:07:00 PM 21.7667 -72.2667 317° Northwest  Level FlightAware Approximate
Tue 08:08:00 PM 21.7736 -72.2659 317° Northwest  Level Estimated
Tue 08:09:00 PM 21.7667 -72.2667 317° Northwest  Level FlightAware Approximate
Tue 08:10:00 PM 21.7736 -72.2659 317° Northwest  Level Estimated
Tue 08:11:00 PM 21.7667 -72.2667 317° Northwest  Level FlightAware Approximate

Login

Don't have an account? Register now (free) for customized features, flight alerts, and more!